星链-5560 (STARLINK-5560 )

导读 | 星芒AI

STARLINK-5560 是 SpaceX 星链计划中的一颗低轨通信卫星,属于第55组发射批次。该卫星旨在为全球用户提供高速互联网服务,尤其覆盖偏远地区。它运行在约550公里高度的近地轨道,采用先进通信技术,支持高带宽和低延迟数据传输。星链项目通过大规模部署此类卫星,构建全球性宽带网络,推动互联网普及。STARLINK-5560 的成功运行有助于提升星链系统的稳定性和覆盖能力。

基本信息
目录编号:
55749
目录名称:
STARLINK-5560
国际标识:
2023-028J
轨道中心:
EARTH
卫星名称:
星链-5560
卫星全名:
星链-5560 (STARLINK-5560 )
卫星状态:
已陨落 最后检测时间 2025-07-07
发射日期:
2023-03-03 UTC
国别 :
美国 (US)
星等 :
--
轨道信息
数据来源 国际轨道数据
星历时间: 2025-07-08T05:38:27+0800
轨道信息已过期119天
半长轴: 6506.741km
偏心率: 0.0010466
轨道倾角: 69.969°
近地点辐角 247.320°
升交点赤经 120.201°
平近点角 228.276°
近地点: 121.796km
远地点: 135.416km
周期: 87.057分钟
每日圈数: 16.540837
详细信息
固有亮度:
5
最大亮度:
2.5
卫星平台:
Starlink v1.5
覆盖范围:
全球
运营商:
太空探索技术公司
运营商所在国:
美国
制造商(研发单位):
太空探索技术公司
制造商所在国:
美国
使用方式:
暂无
卫星简介
星链(Starlink)计划是由太空探索技术公司(SpaceX)提出的一个巨型低轨卫星互联网星座项目,计划在2019年至2024年间在太空搭建由约1.2万颗卫星组成的“星链”网络,其中1584颗将部署在地球上空550千米处的近地轨道,并从2020年开始工作。该卫星仍在工作。